EW4819 Weather Reports


Display with metric or nautical units.
time (UTC)temp
F
wind
direction
speed
MPH
gust
MPH
rain 1hr
in
rain 24hr
in
rain mn
in
humidity
%
barometer
mb
20260507130502 58 193 2.0 6.0 0.00 0.00 0.00 66 1014.2
20260507130002 58 179 3.0 6.0 0.00 0.00 0.00 65 1014.2
20260507125502 58 166 2.0 6.0 0.00 0.00 0.00 63 1014.2
20260507125001 58 172 1.0 4.0 0.00 0.00 0.00 60 1014.2
20260507124502 58 188 2.0 5.0 0.00 0.00 0.00 60 1014.2
20260507124002 58 181 3.0 5.0 0.00 0.00 0.00 60 1014.1
20260507123523 58 169 3.0 8.0 0.00 0.00 0.00 59 1014.2
20260507123002 59 171 4.0 8.0 0.00 0.00 0.00 59 1014.2
20260507122523 59 165 3.0 8.0 0.00 0.00 0.00 59 1014.2
20260507122001 59 129 3.0 7.0 0.00 0.00 0.00 58 1014.3
20260507121502 60 141 3.0 6.0 0.00 0.00 0.00 56 1014.3
20260507121002 60 155 3.0 8.0 0.00 0.00 0.00 60 1014.2
20260507120501 60 150 4.0 8.0 0.00 0.00 0.00 58 1014.2
20260507120023 61 159 4.0 9.0 0.00 0.00 0.00 59 1014.2
20260507115502 61 160 4.0 9.0 0.00 0.00 0.00 57 1014.2
20260507115002 62 150 3.0 8.0 0.00 0.00 0.00 57 1014.2
20260507114503 63 148 4.0 9.0 0.00 0.00 0.00 59 1014.2
20260507114023 63 158 4.0 9.0 0.00 0.00 0.00 62 1014.1
20260507113502 62 154 4.0 8.0 0.00 0.00 0.00 59 1014.1
20260507113002 61 129 3.0 7.0 0.00 0.00 0.00 63 1014.2
20260507112502 60 131 4.0 11.0 0.00 0.00 0.00 65 1014.2
20260507112023 60 130 3.0 11.0 0.00 0.00 0.00 64 1014.3
20260507111503 59 135 2.0 6.0 0.00 0.00 0.00 62 1014.3
20260507111002 59 132 3.0 8.0 0.00 0.00 0.00 64 1014.3
20260507110523 58 123 3.0 8.0 0.00 0.00 0.00 63 1014.4
20260507110002 58 130 2.0 7.0 0.00 0.00 0.00 65 1014.4
20260507105502 58 131 2.0 6.0 0.00 0.00 0.00 66 1014.4
20260507105002 58 147 2.0 6.0 0.00 0.00 0.00 66 1014.4
20260507104502 58 158 3.0 9.0 0.00 0.00 0.00 65 1014.4
20260507104003 58 161 4.0 9.0 0.00 0.00 0.00 65 1014.4
20260507103502 58 149 4.0 7.0 0.00 0.00 0.00 65 1014.4
20260507103024 58 138 3.0 7.0 0.00 0.00 0.00 63 1014.4
20260507102502 58 162 3.0 8.0 0.00 0.00 0.00 64 1014.4
20260507102002 58 163 3.0 8.0 0.00 0.00 0.00 64 1014.4
20260507101502 59 144 1.0 5.0 0.00 0.00 0.00 64 1014.5
20260507101002 59 155 2.0 8.0 0.00 0.00 0.00 64 1014.5
20260507100502 59 143 3.0 8.0 0.00 0.00 0.00 65 1014.4
20260507100002 59 135 3.0 7.0 0.00 0.00 0.00 65 1014.4
20260507095502 59 150 3.0 8.0 0.00 0.00 0.00 66 1014.4
20260507095002 59 146 3.0 8.0 0.00 0.00 0.00 64 1014.5
20260507094502 59 129 3.0 8.0 0.00 0.00 0.00 64 1014.4
20260507094023 59 133 3.0 8.0 0.00 0.00 0.00 67 1014.4
20260507093502 58 110 1.0 4.0 0.00 0.00 0.00 68 1014.4
20260507093002 58 114 2.0 4.0 0.00 0.00 0.00 66 1014.4
20260507092502 59 150 2.0 5.0 0.00 0.00 0.00 66 1014.4
20260507092002 59 149 3.0 8.0 0.00 0.00 0.00 66 1014.4
20260507091502 58 142 3.0 8.0 0.00 0.00 0.00 67 1014.4
20260507091023 58 120 2.0 7.0 0.00 0.00 0.00 67 1014.4
20260507090523 58 146 3.0 8.0 0.00 0.00 0.00 66 1014.4
20260507090002 58 154 3.0 8.0 0.00 0.00 0.00 68 1014.5
20260507085523 58 105 2.0 6.0 0.00 0.00 0.00 66 1014.5
20260507085002 59 133 2.0 6.0 0.00 0.00 0.00 67 1014.6
20260507084502 58 160 3.0 6.0 0.00 0.00 0.00 69 1014.6
20260507084002 58 176 3.0 8.0 0.00 0.00 0.00 69 1014.5
20260507083523 58 179 3.0 8.0 0.00 0.00 0.00 70 1014.5
20260507083002 58 188 2.0 8.0 0.00 0.00 0.00 71 1014.4
20260507082502 58 189 3.0 10.0 0.00 0.00 0.00 72 1014.5
20260507082002 57 195 3.0 10.0 0.00 0.00 0.00 73 1014.5
20260507081502 57 208 2.0 4.0 0.00 0.00 0.00 73 1014.4
20260507081002 57 194 2.0 4.0 0.00 0.00 0.00 73 1014.5
20260507080523 57 201 2.0 6.0 0.00 0.00 0.00 74 1014.5
20260507080002 57 186 2.0 6.0 0.00 0.00 0.00 73 1014.4
20260507075502 56 166 2.0 6.0 0.00 0.00 0.00 73 1014.4
20260507075002 56 136 3.0 7.0 0.00 0.00 0.00 73 1014.4
20260507074504 56 115 3.0 7.0 0.00 0.00 0.00 73 1014.4
20260507074024 56 111 3.0 7.0 0.00 0.00 0.00 74 1014.4
20260507073524 56 127 3.0 8.0 0.00 0.00 0.00 75 1014.3
20260507073003 55 139 3.0 8.0 0.00 0.00 0.00 77 1014.4
20260507072503 54 147 2.0 7.0 0.00 0.00 0.00 80 1014.3
20260507072024 53 125 2.0 8.0 0.00 0.00 0.00 82 1014.2
20260507071505 52 85 2.0 8.0 0.00 0.00 0.00 83 1014.2
20260507071003 51 120 2.0 5.0 0.00 0.00 0.00 85 1014.2
20260507070503 50 192 2.0 5.0 0.00 0.00 0.00 87 1014.3
20260507070003 50 172 2.0 5.0 0.00 0.00 0.00 88 1014.3
20260507065502 49 63 2.0 5.0 0.00 0.00 0.00 89 1014.2
20260507065002 49 54 2.0 5.0 0.00 0.00 0.00 90 1014.1
20260507064523 48 58 1.0 4.0 0.00 0.00 0.00 91 1014.1
20260507064002 47 69 1.0 4.0 0.00 0.00 0.00 91 1014.1
20260507063502 47 76 1.0 4.0 0.00 0.00 0.00 91 1014.1
20260507063002 46 69 1.0 4.0 0.00 0.00 0.00 91 1014.2
20260507062504 46 62 2.0 4.0 0.00 0.00 0.00 91 1014.2
20260507062002 45 61 1.0 4.0 0.00 0.00 0.00 92 1014.2
20260507061502 45 54 1.0 4.0 0.00 0.00 0.00 92 1014.2
20260507061002 45 44 1.0 4.0 0.00 0.00 0.00 92 1014.2
20260507060502 44 359 0.0 2.0 0.00 0.00 0.00 92 1014.2
20260507060002 43 6 0.0 1.0 0.00 0.00 0.00 92 1014.1
20260507055502 43 0 0.0 0.0 0.00 0.00 0.00 91 1014.1
20260507055002 42 0 0.0 0.0 0.00 0.00 0.00 91 1014.1
20260507054502 42 0 0.0 0.0 0.00 0.00 0.00 91 1014.1
20260507054002 41 0 0.0 0.0 0.00 0.00 0.00 91 1014.1
20260507053502 41 0 0.0 0.0 0.00 0.00 0.00 91 1014.1
20260507053003 40 0 0.0 0.0 0.00 0.00 0.00 91 1014.1
20260507052502 40 0 0.0 0.0 0.00 0.00 0.00 91 1014.1
20260507052023 40 5 0.0 1.0 0.00 0.00 0.00 91 1014.0
20260507051523 40 5 0.0 1.0 0.00 0.00 0.00 91 1014.0
20260507051023 39 0 0.0 1.0 0.00 0.00 0.00 91 1014.0
20260507050502 39 0 0.0 0.0 0.00 0.00 0.00 91 1014.0
20260507050002 39 0 0.0 0.0 0.00 0.00 0.00 90 1014.0
20260507045502 39 0 0.0 1.0 0.00 0.00 0.00 90 1013.9
20260507045002 39 0 0.0 1.0 0.00 0.00 0.00 90 1013.9
20260507044502 39 0 0.0 0.0 0.00 0.00 0.00 90 1013.9
20260507044002 38 0 0.0 0.0 0.00 0.00 0.00 90 1013.9
20260507043502 38 5 0.0 1.0 0.00 0.00 0.00 90 1013.9
20260507043003 38 5 0.0 1.0 0.00 0.00 0.00 90 1013.9
20260507042504 38 0 0.0 1.0 0.00 0.00 0.00 90 1013.8
20260507042004 38 0 0.0 0.0 0.00 0.00 0.00 90 1013.9
20260507041524 38 0 0.0 0.0 0.00 0.00 0.00 90 1013.9
20260507041003 38 0 0.0 0.0 0.00 0.00 0.00 90 1013.9
20260507040503 37 0 0.0 0.0 0.00 0.00 0.00 90 1013.9
20260507040003 37 0 0.0 0.0 0.00 0.00 0.00 90 1013.9
20260507035502 37 0 0.0 0.0 0.00 0.00 0.00 90 1013.9
20260507035004 37 0 0.0 0.0 0.00 0.00 0.00 90 1013.9
20260507034502 37 0 0.0 0.0 0.00 0.00 0.00 90 1013.9
20260507034002 36 0 0.0 0.0 0.00 0.00 0.00 89 1013.9
20260507033502 36 0 0.0 0.0 0.00 0.00 0.00 89 1013.9
20260507033002 36 0 0.0 0.0 0.00 0.00 0.00 90 1013.9
20260507032502 36 0 0.0 0.0 0.00 0.00 0.00 90 1013.9
20260507032002 36 0 0.0 0.0 0.00 0.00 0.00 89 1013.9
20260507031502 36 0 0.0 0.0 0.00 0.00 0.00 89 1013.9
20260507031002 36 0 0.0 0.0 0.00 0.00 0.00 89 1013.9
20260507030502 36 0 0.0 0.0 0.00 0.00 0.00 89 1013.8
20260507030024 36 0 0.0 0.0 0.00 0.00 0.00 89 1013.8
20260507025502 36 5 0.0 1.0 0.00 0.00 0.00 89 1013.8
20260507025002 36 5 0.0 1.0 0.00 0.00 0.00 88 1013.8
20260507024502 36 0 0.0 0.0 0.00 0.00 0.00 88 1013.7
20260507024002 36 0 0.0 0.0 0.00 0.00 0.00 88 1013.7
20260507023502 36 0 0.0 0.0 0.00 0.00 0.00 88 1013.7
20260507023002 36 0 0.0 0.0 0.00 0.00 0.00 88 1013.7
20260507022502 36 0 0.0 0.0 0.00 0.00 0.00 88 1013.7
20260507022002 36 0 0.0 0.0 0.00 0.00 0.00 88 1013.7
20260507021502 37 0 0.0 0.0 0.00 0.00 0.00 88 1013.7
20260507021002 37 0 0.0 0.0 0.00 0.00 0.00 88 1013.7
20260507020502 37 0 0.0 0.0 0.00 0.00 0.00 88 1013.7
20260507020003 37 0 0.0 0.0 0.00 0.00 0.00 88 1013.7
20260507015523 37 0 0.0 0.0 0.00 0.00 0.00 88 1013.7
20260507015004 37 0 0.0 0.0 0.00 0.00 0.00 88 1013.6
20260507014523 37 0 0.0 0.0 0.00 0.00 0.00 88 1013.6
20260507014003 37 0 0.0 0.0 0.00 0.00 0.00 87 1013.5
20260507013502 38 0 0.0 0.0 0.00 0.00 0.00 87 1013.5
20260507013023 38 0 0.0 0.0 0.00 0.00 0.00 87 1013.5
20260507012502 38 0 0.0 0.0 0.00 0.00 0.00 87 1013.6
20260507012002 38 0 0.0 0.0 0.00 0.00 0.00 87 1013.6
20260507011504 38 0 0.0 0.0 0.00 0.00 0.00 87 1013.6
20260507011003 38 0 0.0 0.0 0.00 0.00 0.00 87 1013.6
20260507010504 38 0 0.0 0.0 0.00 0.00 0.00 86 1013.6
20260507010004 38 0 0.0 0.0 0.00 0.00 0.00 86 1013.6
20260507005504 38 0 0.0 0.0 0.00 0.00 0.00 86 1013.6
20260507005004 38 0 0.0 0.0 0.00 0.00 0.00 86 1013.6
20260507004503 39 0 0.0 0.0 0.00 0.00 0.00 86 1013.6
20260507004023 39 0 0.0 0.0 0.00 0.00 0.00 86 1013.6
20260507003503 39 0 0.0 0.0 0.00 0.00 0.00 86 1013.7
20260507003004 40 0 0.0 0.0 0.00 0.00 0.00 86 1013.6
20260507002503 40 0 0.0 0.0 0.00 0.00 0.00 85 1013.7
20260507002003 40 0 0.0 0.0 0.00 0.00 0.00 85 1013.6
20260507001524 40 0 0.0 0.0 0.00 0.00 0.00 85 1013.6
20260507001003 40 0 0.0 0.0 0.00 0.00 0.00 85 1013.6
20260507000504 40 0 0.0 0.0 0.00 0.00 0.00 85 1013.6
20260507000025 41 0 0.0 0.0 0.00 0.00 0.00 84 1013.6
20260506235503 41 0 0.0 0.0 0.00 0.00 0.00 84 1013.6
20260506235003 41 0 0.0 0.0 0.00 0.00 0.00 83 1013.6
20260506234503 41 0 0.0 0.0 0.00 0.00 0.00 83 1013.6
20260506234003 41 0 0.0 0.0 0.00 0.00 0.00 82 1013.6
20260506233503 42 0 0.0 0.0 0.00 0.00 0.00 82 1013.5
20260506233003 42 0 0.0 0.0 0.00 0.00 0.00 81 1013.5
20260506232503 42 0 0.0 0.0 0.00 0.00 0.00 81 1013.5
20260506232003 42 0 0.0 0.0 0.00 0.00 0.00 81 1013.5
20260506231503 43 0 0.0 0.0 0.00 0.00 0.00 80 1013.5
20260506231003 43 0 0.0 0.0 0.00 0.00 0.00 80 1013.5
20260506230503 44 0 0.0 0.0 0.00 0.00 0.00 79 1013.5
20260506230003 44 0 0.0 0.0 0.00 0.00 0.00 78 1013.5
20260506225504 44 0 0.0 0.0 0.00 0.00 0.00 77 1013.5
20260506225024 44 5 0.0 1.0 0.00 0.00 0.00 76 1013.5
20260506224525 45 5 0.0 1.0 0.00 0.00 0.00 75 1013.5
20260506224003 45 0 0.0 0.0 0.00 0.00 0.00 74 1013.4
20260506223524 46 0 0.0 0.0 0.00 0.00 0.00 74 1013.4
20260506223003 46 0 0.0 0.0 0.00 0.00 0.00 74 1013.4
20260506222503 47 0 0.0 0.0 0.00 0.00 0.00 73 1013.4
20260506222003 47 0 0.0 0.0 0.00 0.00 0.00 72 1013.4
20260506221503 47 0 0.0 0.0 0.00 0.00 0.00 72 1013.3
20260506221004 48 0 0.0 0.0 0.00 0.00 0.00 72 1013.3
20260506220505 48 5 0.0 1.0 0.00 0.00 0.00 71 1013.3
20260506220003 49 5 0.0 1.0 0.00 0.00 0.00 71 1013.2
20260506215504 49 0 0.0 0.0 0.00 0.00 0.00 70 1013.2
20260506215005 50 0 0.0 0.0 0.00 0.00 0.00 69 1013.2
20260506214505 50 5 0.0 1.0 0.00 0.00 0.00 69 1013.2
20260506214003 51 16 0.0 2.0 0.00 0.00 0.00 68 1013.2
20260506213504 51 17 0.0 2.0 0.00 0.00 0.00 68 1013.2
20260506213003 51 53 0.0 1.0 0.00 0.00 0.00 68 1013.1
20260506212524 52 53 0.0 2.0 0.00 0.00 0.00 68 1013.1
20260506212003 52 53 0.0 2.0 0.00 0.00 0.00 67 1013.1
20260506211503 52 44 0.0 3.0 0.00 0.00 0.00 67 1013.0
20260506211003 52 44 1.0 4.0 0.00 0.00 0.00 67 1013.0
20260506210503 52 47 2.0 5.0 0.00 0.00 0.00 67 1013.0
20260506210004 53 49 2.0 5.0 0.00 0.00 0.00 67 1012.9
20260506205503 53 50 2.0 5.0 0.00 0.00 0.00 66 1012.8
20260506205003 53 56 2.0 5.0 0.00 0.00 0.00 66 1012.8
20260506204503 53 58 2.0 5.0 0.00 0.00 0.00 66 1012.7
20260506204024 53 45 1.0 4.0 0.00 0.00 0.00 66 1012.7
20260506203504 53 35 1.0 4.0 0.00 0.00 0.00 65 1012.7
20260506203024 54 50 1.0 4.0 0.00 0.00 0.00 65 1012.7
20260506202505 54 52 1.0 3.0 0.00 0.00 0.00 65 1012.6
20260506202003 54 46 1.0 3.0 0.00 0.00 0.00 63 1012.6
20260506201503 54 50 1.0 6.0 0.00 0.00 0.00 63 1012.5
20260506201003 54 53 2.0 8.0 0.00 0.00 0.00 62 1012.5
20260506200504 54 53 2.0 8.0 0.00 0.00 0.00 62 1012.5
20260506200003 54 50 1.0 4.0 0.00 0.00 0.00 62 1012.5
20260506195524 54 43 1.0 4.0 0.00 0.00 0.00 61 1012.4
20260506195003 55 32 0.0 3.0 0.00 0.00 0.00 60 1012.4
20260506194503 55 40 0.0 2.0 0.00 0.00 0.00 58 1012.4
20260506194003 55 45 0.0 2.0 0.00 0.00 0.00 58 1012.3
20260506193503 55 43 1.0 4.0 0.00 0.00 0.00 58 1012.2
20260506193003 55 39 1.0 4.0 0.00 0.00 0.00 57 1012.2
20260506192503 56 47 0.0 3.0 0.00 0.00 0.00 57 1012.1
20260506192001 56 39 1.0 5.0 0.00 0.00 0.00 56 1012.1
20260506191501 56 39 2.0 5.0 0.00 0.00 0.00 57 1012.1
20260506191022 56 31 2.0 5.0 0.00 0.00 0.00 56 1012.0
20260506190501 56 13 2.0 5.0 0.00 0.00 0.00 57 1012.0
20260506190001 56 14 1.0 4.0 0.00 0.00 0.00 57 1012.0
20260506185502 56 23 1.0 6.0 0.00 0.00 0.00 56 1011.9
20260506185002 57 29 1.0 6.0 0.00 0.00 0.00 56 1011.9
20260506184502 57 34 1.0 3.0 0.00 0.00 0.00 54 1011.8
20260506184022 57 36 1.0 3.0 0.00 0.00 0.00 54 1011.9
20260506183502 57 35 1.0 3.0 0.00 0.00 0.00 53 1011.8
20260506183003 57 36 1.0 3.0 0.00 0.00 0.00 52 1011.8
20260506182501 57 37 1.0 4.0 0.00 0.00 0.00 54 1011.7
20260506182001 58 36 1.0 4.0 0.00 0.00 0.00 53 1011.7
20260506181501 58 36 2.0 5.0 0.00 0.00 0.00 53 1011.7
20260506181001 58 49 2.0 6.0 0.00 0.00 0.00 51 1011.6
20260506180501 58 51 1.0 6.0 0.00 0.00 0.00 51 1011.5
20260506180022 58 14 1.0 6.0 0.00 0.00 0.00 52 1011.5
20260506175522 58 354 2.0 6.0 0.00 0.00 0.00 50 1011.4
20260506175001 58 3 2.0 5.0 0.00 0.00 0.00 51 1011.3
20260506174501 58 14 1.0 5.0 0.00 0.00 0.00 50 1011.3
20260506174002 58 1 1.0 2.0 0.00 0.00 0.00 49 1011.3
20260506173501 58 356 1.0 4.0 0.00 0.00 0.00 49 1011.3
20260506173001 58 348 1.0 5.0 0.00 0.00 0.00 48 1011.3
20260506172501 58 344 2.0 5.0 0.00 0.00 0.00 49 1011.3
20260506172001 58 336 2.0 4.0 0.00 0.00 0.00 48 1011.3
20260506171501 58 313 2.0 5.0 0.00 0.00 0.00 49 1011.3
20260506171001 58 324 2.0 8.0 0.00 0.00 0.00 49 1011.2
20260506170501 58 353 2.0 8.0 0.00 0.00 0.00 49 1011.2
20260506170001 58 19 2.0 8.0 0.00 0.00 0.00 50 1011.2
20260506165501 58 35 2.0 5.0 0.00 0.00 0.00 49 1011.2
20260506165001 58 28 2.0 5.0 0.00 0.00 0.00 49 1011.3
20260506164501 58 20 2.0 6.0 0.00 0.00 0.00 49 1011.3
20260506164001 58 11 2.0 8.0 0.00 0.00 0.00 50 1011.3
20260506163522 58 16 2.0 8.0 0.00 0.00 0.00 49 1011.3
20260506163001 58 8 2.0 4.0 0.00 0.00 0.00 48 1011.3
20260506162522 59 14 2.0 4.0 0.00 0.00 0.00 49 1011.3
20260506162001 59 47 1.0 4.0 0.00 0.00 0.00 49 1011.3
20260506161522 59 20 1.0 4.0 0.00 0.00 0.00 49 1011.2
20260506161001 59 343 2.0 6.0 0.00 0.00 0.00 48 1011.2
20260506160501 59 345 1.0 6.0 0.00 0.00 0.00 49 1011.3
20260506160001 59 39 1.0 6.0 0.00 0.00 0.00 51 1011.3
20260506155501 59 36 2.0 6.0 0.00 0.00 0.00 51 1011.3
20260506155023 59 36 2.0 6.0 0.00 0.00 0.00 50 1011.4
20260506154502 59 39 1.0 6.0 0.00 0.00 0.00 50 1011.3
20260506154002 59 358 1.0 5.0 0.00 0.00 0.00 49 1011.4
20260506153501 59 12 2.0 5.0 0.00 0.00 0.00 49 1011.3
20260506153003 59 30 1.0 4.0 0.00 0.00 0.00 49 1011.3
20260506152503 59 337 1.0 4.0 0.00 0.00 0.00 50 1011.4
20260506152023 60 335 2.0 4.0 0.00 0.00 0.00 49 1011.3
20260506151501 60 13 1.0 4.0 0.00 0.00 0.00 49 1011.4
20260506151001 59 346 2.0 5.0 0.00 0.00 0.00 51 1011.4
20260506150501 59 327 2.0 8.0 0.00 0.00 0.00 49 1011.4
20260506150001 59 15 2.0 8.0 0.00 0.00 0.00 49 1011.4
20260506145501 59 33 2.0 6.0 0.00 0.00 0.00 49 1011.4
20260506145001 59 28 2.0 6.0 0.00 0.00 0.00 47 1011.5
20260506144503 59 55 2.0 6.0 0.00 0.00 0.00 50 1011.5
20260506144001 59 37 2.0 7.0 0.00 0.00 0.00 48 1011.5
20260506143501 60 23 3.0 10.0 0.00 0.00 0.00 49 1011.5
20260506143001 60 27 3.0 10.0 0.00 0.00 0.00 49 1011.5
20260506142501 61 1 4.0 8.0 0.00 0.00 0.00 48 1011.5
20260506142001 61 336 3.0 8.0 0.00 0.00 0.00 44 1011.5
20260506141501 61 335 3.0 8.0 0.00 0.00 0.00 46 1011.5
20260506141001 60 346 2.0 8.0 0.00 0.00 0.00 50 1011.5
20260506140522 60 6 2.0 8.0 0.00 0.00 0.00 49 1011.6
20260506140001 60 11 3.0 8.0 0.00 0.00 0.00 46 1011.5
20260506135501 61 31 2.0 7.0 0.00 0.00 0.00 45 1011.6
20260506135001 62 48 3.0 9.0 0.00 0.00 0.00 45 1011.6
20260506134501 63 36 3.0 9.0 0.00 0.00 0.00 46 1011.6
20260506134001 60 30 3.0 9.0 0.00 0.00 0.00 46 1011.6
20260506133501 61 30 3.0 9.0 0.00 0.00 0.00 45 1011.6
20260506133022 61 30 3.0 9.0 0.00 0.00 0.00 44 1011.6
20260506132501 60 13 3.0 7.0 0.00 0.00 0.00 44 1011.5
20260506132001 60 353 2.0 6.0 0.00 0.00 0.00 45 1011.6
20260506131502 60 32 2.0 6.0 0.00 0.00 0.00 45 1011.6
20260506131022 61 58 3.0 7.0 0.00 0.00 0.00 44 1011.6